• In Hungary
  • List of Countries
  • For 7 days
  • Water Temperature
  • Satellite Maps
  • Weather Map
  • News
  • Weather Widgets
  • user-avatar
    Login

    Hourly Weather Zaroevo

    Today, 22 July, Sunday

    Time Temperature Precipitation Wind Pressure Humidity
    00:00 +20°C° 0.1 mm 1 mps 735 mmHg 96%
    01:00 +20°C° 0.1 mm 1 mps 735 mmHg 96%
    02:00 +19°C° 0.1 mm 1 mps 735 mmHg 96%
    03:00 +20°C° 0.1 mm 1 mps 735 mmHg 96%
    04:00 +20°C° 0.1 mm 1 mps 735 mmHg 96%
    05:00 +20°C° 0.1 mm 1 mps 735 mmHg 96%
    06:00 +21°C° 0.2 mm 1 mps 735 mmHg 95%
    07:00 +22°C° 0.2 mm 1 mps 736 mmHg 93%
    08:00 +22°C° 0.2 mm 1 mps 736 mmHg 92%
    09:00 +23°C° 0.7 mm 1 mps 736 mmHg 88%
    10:00 +24°C° 0.7 mm 2 mps 736 mmHg 85%
    11:00 +25°C° 0.7 mm 2 mps 736 mmHg 81%
    12:00 +25°C° 0.5 mm 2 mps 736 mmHg 80%
    13:00 +25°C° 0.5 mm 3 mps 736 mmHg 80%
    14:00 +26°C° 0.5 mm 3 mps 736 mmHg 79%
    15:00 +25°C° 0.9 mm 3 mps 736 mmHg 81%
    16:00 +24°C° 0.9 mm 3 mps 736 mmHg 83%
    17:00 +22°C° 0.9 mm 3 mps 736 mmHg 85%
    18:00 +21°C° 0.3 mm 2 mps 736 mmHg 87%
    19:00 +20°C° 0.3 mm 2 mps 736 mmHg 89%
    20:00 +20°C° 0.3 mm 2 mps 736 mmHg 92%
    21:00 +19°C° 0 mm 2 mps 736 mmHg 93%
    22:00 +19°C° 0 mm 2 mps 737 mmHg 94%
    23:00 +18°C° 0 mm 2 mps 737 mmHg 95%

    Tomorrow, 23 July, Monday

    Time Temperature Precipitation Wind Pressure Humidity
    00:00 +19°C° 0 mm 1 mps 737 mmHg 95%
    01:00 +19°C° 0 mm 1 mps 737 mmHg 95%
    02:00 +19°C° 0 mm 1 mps 737 mmHg 95%
    03:00 +19°C° 0 mm 1 mps 737 mmHg 94%
    04:00 +19°C° 0 mm 1 mps 737 mmHg 94%
    05:00 +18°C° 0 mm 2 mps 737 mmHg 94%
    06:00 +19°C° 0 mm 2 mps 737 mmHg 92%
    07:00 +19°C° 0 mm 2 mps 737 mmHg 90%
    08:00 +19°C° 0 mm 2 mps 737 mmHg 88%
    09:00 +21°C° 0.1 mm 2 mps 738 mmHg 80%
    10:00 +23°C° 0.1 mm 2 mps 738 mmHg 71%
    11:00 +25°C° 0.1 mm 3 mps 738 mmHg 63%
    12:00 +25°C° 0.2 mm 3 mps 738 mmHg 61%
    13:00 +26°C° 0.2 mm 3 mps 738 mmHg 60%
    14:00 +26°C° 0.2 mm 3 mps 737 mmHg 58%
    15:00 +26°C° 0.2 mm 3 mps 737 mmHg 60%
    16:00 +25°C° 0.2 mm 3 mps 737 mmHg 62%
    17:00 +25°C° 0.2 mm 3 mps 737 mmHg 65%
    18:00 +22°C° 0 mm 3 mps 738 mmHg 71%
    19:00 +20°C° 0 mm 2 mps 738 mmHg 77%
    20:00 +18°C° 0 mm 2 mps 738 mmHg 83%
    21:00 +17°C° 0 mm 2 mps 738 mmHg 88%
    22:00 +16°C° 0 mm 2 mps 738 mmHg 92%
    23:00 +15°C° 0 mm 2 mps 739 mmHg 96%

    Day after tomorrow, 24 July, Tuesday

    Time Temperature Precipitation Wind Pressure Humidity
    00:00 +15°C° 0 mm 2 mps 738 mmHg 97%
    01:00 +15°C° 0 mm 2 mps 738 mmHg 97%
    02:00 +14°C° 0 mm 2 mps 738 mmHg 98%
    03:00 +15°C° 0 mm 2 mps 739 mmHg 98%
    04:00 +15°C° 0 mm 2 mps 739 mmHg 97%
    05:00 +15°C° 0 mm 2 mps 739 mmHg 96%
    06:00 +16°C° 0 mm 2 mps 739 mmHg 91%
    07:00 +17°C° 0 mm 2 mps 739 mmHg 86%
    08:00 +18°C° 0 mm 2 mps 739 mmHg 80%
    09:00 +19°C° 0 mm 2 mps 739 mmHg 77%
    10:00 +20°C° 0 mm 2 mps 739 mmHg 74%
    11:00 +21°C° 0 mm 2 mps 739 mmHg 70%
    12:00 +21°C° 0 mm 3 mps 739 mmHg 71%
    13:00 +22°C° 0 mm 3 mps 739 mmHg 72%
    14:00 +22°C° 0 mm 3 mps 739 mmHg 72%
    15:00 +22°C° 0.1 mm 3 mps 739 mmHg 74%
    16:00 +22°C° 0.1 mm 3 mps 739 mmHg 76%
    17:00 +21°C° 0.1 mm 3 mps 739 mmHg 79%
    18:00 +20°C° 0 mm 3 mps 739 mmHg 83%
    19:00 +20°C° 0 mm 2 mps 740 mmHg 87%
    20:00 +19°C° 0 mm 2 mps 740 mmHg 91%
    21:00 +18°C° 0 mm 2 mps 740 mmHg 93%
    22:00 +18°C° 0 mm 2 mps 740 mmHg 95%
    23:00 +17°C° 0 mm 2 mps 740 mmHg 96%

    25 July, Wednesday

    Time Temperature Precipitation Wind Pressure Humidity
    00:00 +17°C° 0 mm 2 mps 740 mmHg 97%
    01:00 +17°C° 0 mm 2 mps 739 mmHg 97%
    02:00 +17°C° 0 mm 2 mps 739 mmHg 98%
    03:00 +17°C° 0.1 mm 2 mps 740 mmHg 98%
    04:00 +18°C° 0.1 mm 2 mps 740 mmHg 97%
    05:00 +18°C° 0.1 mm 3 mps 740 mmHg 97%
    06:00 +19°C° 0 mm 3 mps 740 mmHg 94%
    07:00 +20°C° 0 mm 3 mps 740 mmHg 91%
    08:00 +21°C° 0 mm 3 mps 740 mmHg 88%
    09:00 +22°C° 0.1 mm 3 mps 740 mmHg 79%
    10:00 +25°C° 0.1 mm 3 mps 740 mmHg 70%
    11:00 +27°C° 0.1 mm 4 mps 741 mmHg 61%
    12:00 +28°C° 0.1 mm 4 mps 740 mmHg 56%
    13:00 +28°C° 0.1 mm 4 mps 740 mmHg 50%
    14:00 +29°C° 0.1 mm 5 mps 740 mmHg 45%
    15:00 +28°C° 0 mm 4 mps 740 mmHg 48%
    16:00 +28°C° 0 mm 4 mps 740 mmHg 51%
    17:00 +27°C° 0 mm 3 mps 740 mmHg 54%
    18:00 +25°C° 0 mm 3 mps 740 mmHg 61%
    19:00 +22°C° 0 mm 3 mps 740 mmHg 68%
    20:00 +20°C° 0 mm 2 mps 740 mmHg 75%
    21:00 +20°C° 0 mm 2 mps 740 mmHg 76%
    22:00 +19°C° 0 mm 2 mps 741 mmHg 77%
    23:00 +19°C° 0 mm 3 mps 741 mmHg 77%

    26 July, Thursday

    Time Temperature Precipitation Wind Pressure Humidity
    00:00 +19°C° 0 mm 3 mps 741 mmHg 80%
    01:00 +18°C° 0 mm 3 mps 741 mmHg 83%
    02:00 +18°C° 0 mm 3 mps 741 mmHg 86%
    03:00 +18°C° 0 mm 3 mps 741 mmHg 87%
    04:00 +18°C° 0 mm 3 mps 742 mmHg 88%
    05:00 +18°C° 0 mm 3 mps 742 mmHg 89%
    06:00 +20°C° 0 mm 3 mps 742 mmHg 83%
    07:00 +21°C° 0 mm 3 mps 743 mmHg 78%
    08:00 +24°C° 0 mm 3 mps 743 mmHg 72%
    09:00 +25°C° 0 mm 3 mps 743 mmHg 66%
    10:00 +26°C° 0 mm 4 mps 743 mmHg 61%
    11:00 +28°C° 0 mm 4 mps 743 mmHg 55%
    12:00 +28°C° 0 mm 4 mps 743 mmHg 53%
    13:00 +29°C° 0 mm 4 mps 744 mmHg 51%
    14:00 +29°C° 0 mm 4 mps 744 mmHg 49%
    15:00 +29°C° 0 mm 3 mps 744 mmHg 51%
    16:00 +28°C° 0 mm 3 mps 744 mmHg 54%
    17:00 +28°C° 0 mm 3 mps 744 mmHg 56%
    18:00 +26°C° 0 mm 2 mps 744 mmHg 64%
    19:00 +24°C° 0 mm 2 mps 744 mmHg 73%
    20:00 +21°C° 0 mm 2 mps 744 mmHg 81%
    21:00 +21°C° 0 mm 2 mps 744 mmHg 84%
    22:00 +20°C° 0 mm 2 mps 744 mmHg 88%
    23:00 +19°C° 0 mm 2 mps 745 mmHg 91%

    27 July, Friday

    Time Temperature Precipitation Wind Pressure Humidity
    00:00 +19°C° 0 mm 2 mps 745 mmHg 92%
    01:00 +18°C° 0 mm 2 mps 745 mmHg 93%
    02:00 +18°C° 0 mm 2 mps 745 mmHg 94%
    03:00 +18°C° 0 mm 2 mps 745 mmHg 93%
    04:00 +19°C° 0 mm 2 mps 746 mmHg 93%
    05:00 +19°C° 0 mm 2 mps 746 mmHg 92%
    06:00 +21°C° 0 mm 2 mps 746 mmHg 85%
    07:00 +24°C° 0 mm 2 mps 746 mmHg 78%
    08:00 +26°C° 0 mm 3 mps 746 mmHg 71%
    09:00 +28°C° 0 mm 3 mps 746 mmHg 64%
    10:00 +30°C° 0 mm 3 mps 747 mmHg 56%
    11:00 +32°C° 0 mm 4 mps 747 mmHg 49%
    12:00 +33°C° 0 mm 4 mps 747 mmHg 47%
    13:00 +33°C° 0 mm 4 mps 747 mmHg 44%
    14:00 +34°C° 0 mm 4 mps 747 mmHg 42%
    15:00 +34°C° 0 mm 3 mps 747 mmHg 46%
    16:00 +33°C° 0 mm 3 mps 747 mmHg 50%
    17:00 +32°C° 0 mm 2 mps 747 mmHg 54%
    18:00 +30°C° 0 mm 2 mps 747 mmHg 62%
    19:00 +28°C° 0 mm 2 mps 747 mmHg 69%
    20:00 +26°C° 0 mm 2 mps 748 mmHg 77%
    21:00 +25°C° 0 mm 2 mps 748 mmHg 79%
    22:00 +24°C° 0 mm 2 mps 748 mmHg 82%
    23:00 +23°C° 0 mm 2 mps 748 mmHg 84%
    Show more